Starlink 34748

operational
NORAD ID: 64848 Int'l Des: 2025-152 Owner: SPXS Country: US Constellation: starlink
LEOCIRCULARRETROGRADESSO

About Starlink 34748

Description loading...

Live Position

Loading 3D Globe...

Upcoming Passes

Altitude History

Altitude vs Time

uPlot chart will show altitude changes over time

Two-Line Element Set

1 64848U 25152G 26062.13260766 .00002385 00000-0 16947-3 0 9990
2 64848 97.6031 279.0902 0002200 79.5560 280.5914 15.05650200 34430
Epoch: Mar 3, 2026 • Age: 15 hours

Current Status

Altitude 561.5 km
Velocity 7.59 km/s
Sub-Earth Point 82.31°N, 177.57°E
Launch Date Jul 19, 2025
Age 0.6 years
Type internet

Technical Details

Classification Payload
Mass 575.00 kg
Dry Mass 530.00 kg
Total Mass 575.00 kg
Length 0.30 m
Diameter 4.10 m
Span 29.00 m
Shape Box + pan
Manufacturer SPXS
Bus Type Starlink V2MO
Phase Status In Orbit
Owner/State SPXS/US

Large Constellations

Loading constellations...